This demonstration page uses our WeatherBlox Daily Observations layout. Learn more.

Left ArrowRight Arrow

39.01783, -85.05884

Hourly Observations for August 17, 2021

Temp ( °F °C ) Dew Point ( °F °C ) Humidity (%) Winds ( mph kmh ) Pressure ( in mb ) Visibility ( mi km ) Precip ( " mm )
12:52 am 00:52 Mostly Cloudy 73 22.8 69 20.6 87 87 SE 5 7 30.02 1017 10 16 0.00 0.00
1:52 am 01:52 Mostly Cloudy 73 22.8 69 20.6 87 87 SSE 3 6 30.01 1016 10 16 0.00 0.00
2:52 am 02:52 Mostly Cloudy 72 22.2 68 20 87 87 SE 5 7 30.00 1016 10 16 0.00 0.00
3:52 am 03:52 Mostly Cloudy 71 21.7 68 20 90 90 Calm 29.98 1015 9 14 0.00 0.00
4:52 am 04:52 Partly Cloudy 71 21.7 68 20 90 90 Calm 29.99 1016 10 16 0.00 0.00
5:52 am 05:52 Mostly Cloudy 72 22.2 68 20 87 87 Calm 29.99 1016 10 16 0.00 0.00
6:52 am 06:52 Cloudy 72 22.2 68 20 87 87 Calm 30.01 1016 10 16 0.00 0.00
7:52 am 07:52 Cloudy 73 22.8 69 20.6 87 87 SE 5 7 30.03 1017 9 14 0.00 0.00
8:52 am 08:52 Cloudy 73 22.8 69 20.6 87 87 SSE 6 9 30.04 1017 10 16 0.00 0.00
9:52 am 09:52 Mostly Cloudy 75 23.9 70 21.1 84 84 E 3 6 30.04 1017 10 16 0.00 0.00
10:52 am 10:52 Cloudy 77 25 70 21.1 79 79 Calm 30.05 1018 10 16 0.00 0.00
11:23 am 11:23 Cloudy 80 26.7 70 21.1 71 71 Calm 30.04 1017 10 16 0.00 0.00
11:52 am 11:52 Cloudy 80 26.7 70 21.1 71 71 NNW 5 7 30.04 1017 10 16 0.00 0.00
12:33 pm 12:33 Cloudy 82 27.8 71 21.7 69 69 VRB 3 6 30.01 1016 10 16 0.00 0.00
12:52 pm 12:52 Cloudy 83 28.3 70 21.1 65 65 Calm 30.02 1017 10 16 0.00 0.00
1:52 pm 13:52 Cloudy 83 28.3 69 20.6 63 63 ESE 3 6 30.00 1016 10 16 0.00 0.00
2:23 pm 14:23 Mostly Cloudy 84 28.9 70 21.1 63 63 ENE 3 6 29.98 1015 10 16 0.00 0.00
2:36 pm 14:36 Cloudy 85 29.4 69 20.6 59 59 Calm 29.98 1015 10 16 0.00 0.00
2:52 pm 14:52 Cloudy 85 29.4 69 20.6 59 59 VRB 5 7 29.99 1016 10 16 0.00 0.00
3:52 pm 15:52 Cloudy 84 28.9 68 20 59 59 ESE 5 7 29.97 1015 10 16 0.00 0.00
4:52 pm 16:52 Cloudy 81 27.2 71 21.7 72 72 SSE 16 26 29.96 1015 10 16 0.00 0.00
5:19 pm 17:19 Cloudy with Nearby Thunderstorms 81 27.2 71 21.7 72 72 ESE 10 17 29.96 1014 10 16 0.00 0.00
5:52 pm 17:52 Cloudy with Nearby Thunderstorms 80 26.7 69 20.6 69 69 NE 13 20 29.98 1015 10 16 0.00 0.00
6:09 pm 18:09 Cloudy 80 26.7 69 20.6 69 69 NE 10 17 29.97 1015 10 16 0.00 0.00
6:52 pm 18:52 Cloudy 80 26.7 67 19.4 64 64 E 6 9 29.97 1015 10 16 0.00 0.00
7:52 pm 19:52 Cloudy 78 25.6 68 20 71 71 ESE 6 9 29.96 1015 10 16 0.00 0.00
8:52 pm 20:52 Cloudy 77 25 69 20.6 77 77 ESE 7 11 29.97 1015 10 16 0.00 0.00
9:52 pm 21:52 Cloudy 76 24.4 70 21.1 82 82 ESE 6 9 29.98 1015 10 16 0.00 0.00
10:52 pm 22:52 Cloudy 75 23.9 69 20.6 82 82 E 6 9 30.00 1016 10 16 0.00 0.00
11:52 pm 23:52 Cloudy 75 23.9 69 20.6 82 82 E 7 11 29.99 1016 10 16 0.00 0.00

Powered by AerisWeather